Location: Poughquag
(41.6090°N, 73.6820°W)
Time: 12:41:35
(UTC-04:00)

Tiros 1 - Pass Details

Date: 05 June 2020
Orbit: 630 x 664 km, 48.4° (Epoch: 06 July)

Event Time Altitude Azimuth Distance (km) Brightness Sun altitude
Rises 14:05:50 0° 284° (WNW) 2,974 10.7 65.7°
Reaches altitude 10° 14:08:21 10° 293° (WNW) 2,057 10.0 65.4°
Maximum altitude 14:12:43 35° 360° (N) 1,038 8.5 64.8°
Drops below altitude 10° 14:17:03 10° 67° (ENE) 2,036 9.6 64.2°
Sets 14:19:32 0° 76° (ENE) 2,939 10.3 63.8°
